Tiempo cada hora Caudebec-en-Caux

Hoy, 26 Enero, Martes

Tiempo Temperatura Precipitaciones Viento Presión Humedad
00:00 0°C° 0 mm 3 mps 756 mmHg 85%
01:00 0°C° 0 mm 3 mps 756 mmHg 84%
02:00 0°C° 0 mm 3 mps 756 mmHg 83%
03:00 0°C° 0 mm 4 mps 757 mmHg 82%
04:00 -1°C° 0 mm 4 mps 757 mmHg 82%
05:00 -1°C° 0 mm 4 mps 757 mmHg 83%
06:00 -1°C° 0 mm 4 mps 756 mmHg 84%
07:00 -1°C° 0 mm 4 mps 757 mmHg 80%
08:00 0°C° 0 mm 3 mps 757 mmHg 77%
09:00 +1°C° 0 mm 3 mps 757 mmHg 73%
10:00 0°C° 0 mm 4 mps 757 mmHg 71%
11:00 +1°C° 0 mm 4 mps 757 mmHg 70%
12:00 +2°C° 0 mm 5 mps 757 mmHg 68%
13:00 +2°C° 0 mm 5 mps 757 mmHg 69%
14:00 +2°C° 0 mm 5 mps 756 mmHg 71%
15:00 +1°C° 0 mm 4 mps 756 mmHg 72%
16:00 +1°C° 0 mm 5 mps 755 mmHg 75%
17:00 -1°C° 0 mm 6 mps 755 mmHg 79%
18:00 -1°C° 0 mm 6 mps 755 mmHg 82%
19:00 -1°C° 0.1 mm 6 mps 754 mmHg 81%
20:00 -1°C° 0.1 mm 7 mps 754 mmHg 80%
21:00 -1°C° 0.1 mm 7 mps 754 mmHg 79%
22:00 -1°C° 0 mm 7 mps 754 mmHg 80%
23:00 +1°C° 0 mm 6 mps 753 mmHg 80%

Mañana, 27 Enero, Miércoles

Tiempo Temperatura Precipitaciones Viento Presión Humedad
00:00 +1°C° 0 mm 6 mps 753 mmHg 81%
01:00 +1°C° 0 mm 6 mps 752 mmHg 85%
02:00 +2°C° 0 mm 5 mps 752 mmHg 88%
03:00 +2°C° 0 mm 5 mps 752 mmHg 91%
04:00 +3°C° 0.1 mm 5 mps 752 mmHg 93%
05:00 +4°C° 0.1 mm 4 mps 752 mmHg 95%
06:00 +5°C° 0.1 mm 4 mps 752 mmHg 97%
07:00 +5°C° 0.2 mm 4 mps 752 mmHg 97%
08:00 +6°C° 0.2 mm 4 mps 753 mmHg 97%
09:00 +7°C° 0.2 mm 4 mps 753 mmHg 97%
10:00 +7°C° 0.1 mm 4 mps 753 mmHg 97%
11:00 +7°C° 0.1 mm 4 mps 753 mmHg 97%
12:00 +8°C° 0.1 mm 5 mps 753 mmHg 96%
13:00 +8°C° 0 mm 4 mps 753 mmHg 96%
14:00 +8°C° 0 mm 4 mps 753 mmHg 95%
15:00 +8°C° 0 mm 4 mps 753 mmHg 94%
16:00 +8°C° 0 mm 4 mps 753 mmHg 95%
17:00 +8°C° 0 mm 3 mps 753 mmHg 96%
18:00 +8°C° 0 mm 2 mps 753 mmHg 96%
19:00 +8°C° 0 mm 2 mps 753 mmHg 96%
20:00 +8°C° 0 mm 3 mps 753 mmHg 96%
21:00 +7°C° 0 mm 3 mps 752 mmHg 96%
22:00 +8°C° 1.2 mm 3 mps 752 mmHg 97%
23:00 +8°C° 1.2 mm 3 mps 751 mmHg 97%

Pasado mañana, 28 Enero, Jueves

Tiempo Temperatura Precipitaciones Viento Presión Humedad
00:00 +8°C° 1.2 mm 4 mps 751 mmHg 98%
01:00 +8°C° 0.3 mm 4 mps 750 mmHg 96%
02:00 +9°C° 0.3 mm 5 mps 749 mmHg 95%
03:00 +10°C° 0.3 mm 6 mps 748 mmHg 93%
04:00 +10°C° 0.7 mm 7 mps 748 mmHg 94%
05:00 +10°C° 0.7 mm 7 mps 747 mmHg 94%
06:00 +10°C° 0.7 mm 8 mps 747 mmHg 94%
07:00 +10°C° 0.2 mm 8 mps 747 mmHg 93%
08:00 +10°C° 0.2 mm 8 mps 747 mmHg 92%
09:00 +10°C° 0.2 mm 9 mps 747 mmHg 90%
10:00 +10°C° 0 mm 9 mps 747 mmHg 89%
11:00 +11°C° 0 mm 9 mps 747 mmHg 88%
12:00 +11°C° 0 mm 9 mps 748 mmHg 86%
13:00 +11°C° 0.1 mm 8 mps 747 mmHg 85%
14:00 +11°C° 0.1 mm 8 mps 747 mmHg 83%
15:00 +11°C° 0.1 mm 8 mps 747 mmHg 82%
16:00 +11°C° 0.1 mm 7 mps 747 mmHg 84%
17:00 +10°C° 0.1 mm 6 mps 747 mmHg 86%
18:00 +10°C° 0.1 mm 6 mps 747 mmHg 89%
19:00 +10°C° 1.1 mm 6 mps 747 mmHg 90%
20:00 +10°C° 1.1 mm 7 mps 746 mmHg 92%
21:00 +10°C° 1.1 mm 7 mps 746 mmHg 94%
22:00 +9°C° 0.6 mm 8 mps 746 mmHg 92%
23:00 +8°C° 0.6 mm 9 mps 746 mmHg 90%

29 Enero, Viernes

Tiempo Temperatura Precipitaciones Viento Presión Humedad
00:00 +8°C° 0.6 mm 9 mps 747 mmHg 88%
01:00 +7°C° 0 mm 8 mps 747 mmHg 89%
02:00 +6°C° 0 mm 7 mps 748 mmHg 90%
03:00 +7°C° 0 mm 6 mps 748 mmHg 91%
04:00 +7°C° 0 mm 6 mps 748 mmHg 91%
05:00 +7°C° 0 mm 6 mps 748 mmHg 91%
06:00 +7°C° 0 mm 6 mps 748 mmHg 92%
07:00 +8°C° 0.1 mm 6 mps 748 mmHg 91%
08:00 +8°C° 0.1 mm 6 mps 748 mmHg 91%
09:00 +8°C° 0.1 mm 6 mps 748 mmHg 91%
10:00 +8°C° 0.2 mm 7 mps 749 mmHg 89%
11:00 +9°C° 0.2 mm 7 mps 749 mmHg 86%
12:00 +9°C° 0.2 mm 7 mps 749 mmHg 84%
13:00 +9°C° 0.1 mm 7 mps 749 mmHg 83%
14:00 +9°C° 0.1 mm 7 mps 749 mmHg 82%
15:00 +9°C° 0.1 mm 8 mps 749 mmHg 82%
16:00 +8°C° 0 mm 7 mps 749 mmHg 85%
17:00 +7°C° 0 mm 6 mps 749 mmHg 88%
18:00 +6°C° 0 mm 5 mps 750 mmHg 91%
19:00 +6°C° 0 mm 4 mps 750 mmHg 92%
20:00 +5°C° 0 mm 3 mps 750 mmHg 93%
21:00 +5°C° 0 mm 3 mps 750 mmHg 94%
22:00 +6°C° 0 mm 2 mps 749 mmHg 95%
23:00 +5°C° 0 mm 2 mps 749 mmHg 95%

30 Enero, Sábado

Tiempo Temperatura Precipitaciones Viento Presión Humedad
00:00 +5°C° 0 mm 2 mps 749 mmHg 96%
01:00 +6°C° 0 mm 1 mps 748 mmHg 95%
02:00 +5°C° 0 mm 1 mps 748 mmHg 95%
03:00 +5°C° 0 mm 1 mps 748 mmHg 94%
04:00 +5°C° 0 mm 1 mps 747 mmHg 93%
05:00 +5°C° 0 mm 1 mps 747 mmHg 93%
06:00 +5°C° 0 mm 1 mps 746 mmHg 92%
07:00 +4°C° 0 mm 2 mps 746 mmHg 91%
08:00 +5°C° 0 mm 2 mps 746 mmHg 90%
09:00 +5°C° 0 mm 2 mps 746 mmHg 90%
10:00 +6°C° 0 mm 2 mps 746 mmHg 87%
11:00 +7°C° 0 mm 2 mps 747 mmHg 85%
12:00 +7°C° 0 mm 3 mps 747 mmHg 83%
13:00 +7°C° 0 mm 3 mps 746 mmHg 84%
14:00 +7°C° 0 mm 3 mps 746 mmHg 85%
15:00 +7°C° 0 mm 3 mps 746 mmHg 86%
16:00 +7°C° 0 mm 3 mps 746 mmHg 88%
17:00 +7°C° 0 mm 3 mps 746 mmHg 89%
18:00 +5°C° 0 mm 3 mps 746 mmHg 90%
19:00 +5°C° 0.2 mm 4 mps 746 mmHg 90%
20:00 +5°C° 0.2 mm 4 mps 746 mmHg 90%
21:00 +5°C° 0.2 mm 5 mps 746 mmHg 90%
22:00 +5°C° 0.6 mm 5 mps 746 mmHg 91%
23:00 +4°C° 0.6 mm 6 mps 745 mmHg 92%

31 Enero, Domingo

Tiempo Temperatura Precipitaciones Viento Presión Humedad
00:00 +5°C° 0.6 mm 6 mps 745 mmHg 93%
01:00 +5°C° 0.2 mm 6 mps 744 mmHg 94%
02:00 +7°C° 0.2 mm 6 mps 743 mmHg 94%
03:00 +7°C° 0.2 mm 5 mps 743 mmHg 95%
04:00 +7°C° 0.7 mm 6 mps 742 mmHg 95%
05:00 +7°C° 0.7 mm 6 mps 741 mmHg 94%
06:00 +8°C° 0.7 mm 6 mps 740 mmHg 94%
07:00 +8°C° 1.8 mm 7 mps 739 mmHg 94%
08:00 +8°C° 1.8 mm 7 mps 738 mmHg 93%
09:00 +7°C° 1.8 mm 8 mps 737 mmHg 93%
10:00 +9°C° 0.6 mm 8 mps 736 mmHg 90%
11:00 +9°C° 0.6 mm 8 mps 735 mmHg 88%
12:00 +10°C° 0.6 mm 8 mps 734 mmHg 86%
13:00 +10°C° 0.3 mm 8 mps 734 mmHg 86%
14:00 +9°C° 0.3 mm 8 mps 733 mmHg 85%
15:00 +9°C° 0.3 mm 7 mps 732 mmHg 85%
16:00 +9°C° 0.8 mm 7 mps 732 mmHg 87%
17:00 +9°C° 0.8 mm 7 mps 732 mmHg 90%
18:00 +9°C° 0.8 mm 6 mps 731 mmHg 92%
19:00 +9°C° 0.3 mm 7 mps 732 mmHg 91%
20:00 +9°C° 0.3 mm 8 mps 733 mmHg 91%
21:00 +8°C° 0.3 mm 9 mps 734 mmHg 90%
22:00 +8°C° 0 mm 9 mps 736 mmHg 89%
23:00 +8°C° 0 mm 9 mps 737 mmHg 87%
Mostrar más